Flag for Germany Weather past 2 weeks in Schwäbisch Gmünd, Baden-Württemberg, Germany

52 °F


Feels Like: 51 °F
Forecast: 46 / 60 °F
Wind: 3 mph from Northwest

Location: Stoetten

Current Time: Oct 7, 2015 at 7:45:54 PM

Latest Report: Oct 7, 2015 at 7:00 PM

Visibility: 44 mi

Pressure: 30.00 "Hg

Humidity: 94%

Dew point: 50 °F

Location of Schwäbisch GmündLocation

Historic Weather in Schwäbisch Gmünd — Graph


Schwäbisch Gmünd temperature yesterday

Maximum temperature yesterday: 65 °F (at 12:00 PM)
Minimum temperature yesterday: 51 °F (at 2:00 AM)
Average temperature yesterday: 56 °F

Past Weeks' High & Low Weather Summary

High65 °F (Oct 6, 12:00 PM)100% (Sep 23, 9:00 PM)30.52 "Hg (Sep 23, 9:00 PM)
Low36 °F (Oct 1, 8:00 AM)43% (Oct 2, 4:00 PM)29.67 "Hg (Oct 6, 3:00 PM)
Average51 °F78%30.15 "Hg
* Reported Sep 22 6:00 PM — Oct 7 6:00 PM, Schwäbisch Gmünd, Weather by CustomWeather, © 2015

Note: Actual official high and low records may vary slightly from our data, if they occured in-between our weather recording intervals... More about our weather records


Schwäbisch Gmünd weather history for previous 24 hours

Time TempWeatherWind HumidityBarometerVisibility
6:00 PM
Wed, Oct 7
52 °FPassing clouds.2 mph95%29.99 "Hg43 mi
5:00 PM53 °FPassing clouds.5 mph94%29.98 "Hg37 mi
4:00 PM53 °FLow clouds.3 mph100%29.96 "Hg43 mi
3:00 PM53 °FFog.6 mph100%29.96 "Hg1 mi
2:00 PM52 °FLight rain. Dense fog.6 mph100%29.96 "Hg1 mi
1:00 PM52 °FLight rain. Low clouds.6 mph100%29.95 "Hg1 mi
12:00 PM52 °FLight rain. Low clouds.6 mph100%29.94 "Hg2 mi
11:00 AM52 °FLight rain. Low clouds.8 mph100%29.93 "Hg2 mi
10:00 AM53 °FLight rain. Low clouds.6 mph100%29.90 "Hg2 mi
9:00 AM53 °FLight rain. Low clouds.2 mph100%29.88 "Hg2 mi
8:00 AM53 °FLight rain. Low clouds.5 mph100%29.86 "Hg2 mi
7:00 AM53 °FOvercast.5 mph100%29.84 "Hg31 mi
6:00 AM54 °FOvercast.6 mph97%29.83 "Hg37 mi
5:00 AM54 °FOvercast.5 mph97%29.83 "Hg31 mi
4:00 AM54 °FOvercast.5 mph96%29.82 "Hg40 mi
3:00 AM54 °FLight rain. Overcast.5 mph98%29.82 "Hg7 mi
2:00 AM54 °FOvercast.3 mph97%29.80 "Hg34 mi
1:00 AM54 °FDrizzle. Overcast.3 mph98%29.81 "Hg14 mi
11:00 PM
Tue, Oct 6
54 °FOvercast.3 mph99%29.80 "Hg10 mi
10:00 PM54 °FOvercast.3 mph99%29.79 "Hg11 mi
9:00 PM55 °FOvercast.3 mph98%29.79 "Hg31 mi
8:00 PM55 °FOvercast.3 mph99%29.78 "Hg37 mi
7:00 PM55 °FSprinkles. Low clouds.6 mph96%29.77 "Hg28 mi
Weather by CustomWeather, © 2015

See weather overviewHow to use our weather pages